map of ASK home
Great Circle Mapper logo
ASK - Airport
Location
City:  Yamoussoukro, Côte d'Ivoire (Ivory Coast)
ICAO / IATA:DIYO / ASK

Details
Type:Airport (Aerodrome, Airfield)
Use:Public/Civil, International (customs port of entry)
Latitude:6°54'11"N (6.903167)
Longitude:5°21'56"W (-5.365580)
Datum:WGS 1984
Elevation:699 ft (213 m)
Runways:1
Longest:9843 × 148 ft (3000 × 45 m), paved

Time
Time Zone:UTC+0
Local Time:

Weather
METAR:DIYO 210800Z 20004KT 8000 OVC100 25/23 Q1014 NOSIG
TAF:DIYO 210500Z 2106/2206 22004KT 9999 BKN013
BECMG 2109/2111 SCT013
TEMPO 2114/2118 TS SCT013 FEW020CB

Related Locations
Nearby:
Farthest:FUN: 12116 mi / 19498 km
Funafuti Atoll [Intl], TV

Find:

   beyond  
but within

Other Information
Maps:
NOTAMs:
Sources:

  
flag of Côte d'Ivoire (Ivory Coast)   

Sectional Chart

Flight Planning
at skyvector.com

Satellite Image

Google Maps Satellite View

 

Copyright © 2004-2014 Karl L. Swartz. All rights reserved.
The Great Circle Mapper name and logo are trademarks of the Great Circle Mapper.
All other trademarks mentioned herein belong to their respective owners.
Please see credits for attibutions and further copyright information.

  Follow gcmap on Facebook Follow gcmap on Twitter

hCard Microformat

Geo Microformat